EW6283 Weather Reports


time (UTC)temp
C
wind
direction
speed
KPH
gust
KPH
rain 1hr
cm
rain 24hr
cm
rain mn
cm
humidity
%
barometer
mb
20260504141027 14 245 19.3 40.2 0.00 0.00 0.00 43 1007.9
20260504140527 13 270 25.7 45.1 0.00 0.00 0.00 45 1007.9
20260504130527 12 236 24.1 32.2 0.00 0.00 0.00 47 1008.4
20260504110528 10 227 4.8 19.3 0.00 0.00 0.00 53 1008.8
20260504110144 10 213 6.4 19.3 0.00 0.00 0.00 53 1008.9
20260504081529 8 203 4.8 16.1 0.00 0.00 0.00 59 1008.5
20260504081142 8 243 14.5 17.7 0.00 0.00 0.00 58 1008.6
20260504080527 8 243 8.0 12.9 0.00 0.00 0.00 59 1008.7
20260504080259 8 234 6.4 12.9 0.00 0.00 0.00 59 1008.6
20260504050528 8 232 8.0 17.7 0.00 0.00 0.00 52 1009.4
20260504045643 8 251 16.1 16.1 0.00 0.00 0.00 53 1009.6
20260504045028 8 264 6.4 17.7 0.00 0.00 0.00 53 1009.6
20260504044532 8 231 6.4 17.7 0.00 0.00 0.00 52 1009.7
20260504044028 8 274 12.9 17.7 0.00 0.00 0.00 52 1009.6
20260504043528 8 227 9.7 11.3 0.00 0.00 0.00 53 1009.6
20260504043145 8 241 4.8 11.3 0.00 0.00 0.00 53 1009.6
20260504042644 8 280 6.4 11.3 0.00 0.00 0.00 53 1009.6
20260504042027 8 268 4.8 8.0 0.00 0.00 0.00 53 1009.5
20260504041532 8 226 1.6 8.0 0.00 0.00 0.00 53 1009.5
20260504041259 8 228 4.8 6.4 0.00 0.00 0.00 52 1009.4
20260504040528 8 237 4.8 6.4 0.00 0.00 0.00 53 1009.4
20260504040028 7 304 0.0 11.3 0.00 0.00 0.00 54 1009.3
20260504035643 8 237 3.2 11.3 0.00 0.00 0.00 53 1009.3
20260504035027 8 233 8.0 9.7 0.00 0.00 0.00 53 1009.2
20260504034529 8 228 4.8 9.7 0.00 0.00 0.00 51 1009.2
20260504034027 8 188 3.2 11.3 0.00 0.00 0.00 51 1009.1
20260504033530 8 226 8.0 8.0 0.00 0.00 0.00 50 1009.2
20260504033029 8 251 4.8 12.9 0.00 0.00 0.00 50 1009.1
20260504032528 8 233 11.3 14.5 0.00 0.00 0.00 50 1009.2
20260504032027 8 278 11.3 16.1 0.00 0.00 0.00 50 1009.2
20260504031529 8 274 4.8 16.1 0.00 0.00 0.00 50 1009.1
20260504031027 8 256 4.8 17.7 0.00 0.00 0.00 49 1009.0
20260504030527 8 272 6.4 24.1 0.00 0.00 0.00 49 1009.0
20260504030029 8 305 11.3 24.1 0.00 0.00 0.00 48 1008.9
20260504025528 8 273 14.5 22.5 0.00 0.00 0.00 48 1008.9
20260504025027 8 285 11.3 24.1 0.00 0.00 0.00 47 1008.9
20260504024644 8 303 8.0 24.1 0.00 0.00 0.00 48 1009.0
20260504024142 8 252 8.0 20.9 0.00 0.00 0.00 47 1008.9
20260504023527 8 284 17.7 20.9 0.00 0.00 0.00 47 1009.0
20260504023144 8 281 19.3 20.9 0.00 0.00 0.00 47 1009.0
20260504022642 8 283 9.7 19.3 0.00 0.00 0.00 46 1009.0
20260504022142 8 293 16.1 24.1 0.00 0.00 0.00 46 1009.1
20260504021529 9 289 8.0 24.1 0.00 0.00 0.00 45 1009.1
20260504021027 9 276 9.7 25.7 0.00 0.00 0.00 45 1009.1
20260504020528 9 255 19.3 25.7 0.00 0.00 0.00 45 1009.2
20260504020143 9 347 19.3 20.9 0.00 0.00 0.00 45 1009.2
20260504015528 9 301 11.3 29.0 0.00 0.00 0.00 44 1009.2
20260504015027 9 289 12.9 29.0 0.00 0.00 0.00 44 1009.2
20260504014644 9 264 11.3 27.4 0.00 0.00 0.00 44 1009.0
20260504014030 9 306 20.9 27.4 0.00 0.00 0.00 44 1009.0
20260504013527 9 258 12.9 19.3 0.00 0.00 0.00 44 1008.9
20260504013028 9 260 16.1 30.6 0.00 0.00 0.00 43 1008.9
20260504012527 9 248 12.9 30.6 0.00 0.00 0.00 43 1008.8
20260504012143 9 275 17.7 19.3 0.00 0.00 0.00 42 1008.7
20260504011529 9 310 6.4 30.6 0.00 0.00 0.00 42 1008.6
20260504011027 9 282 11.3 32.2 0.00 0.00 0.00 41 1008.6
20260504010527 9 283 14.5 32.2 0.00 0.00 0.00 41 1008.5
20260504010028 9 264 11.3 16.1 0.00 0.00 0.00 41 1008.5
20260504005643 9 291 6.4 22.5 0.00 0.00 0.00 41 1008.4
20260504005258 9 21 4.8 22.5 0.00 0.00 0.00 40 1008.4
20260504004643 9 222 12.9 22.5 0.00 0.00 0.00 40 1008.3
20260504004142 10 260 16.1 24.1 0.00 0.00 0.00 39 1008.2
20260504003642 10 206 6.4 29.0 0.00 0.00 0.00 38 1008.3
20260504003144 10 283 24.1 27.4 0.00 0.00 0.00 38 1008.1
20260504002527 10 316 8.0 25.7 0.00 0.00 0.00 37 1008.0
20260504002027 10 40 25.7 25.7 0.00 0.00 0.00 37 1008.0
20260504001529 10 210 3.2 17.7 0.00 0.00 0.00 37 1007.8
20260504001141 10 325 4.8 14.5 0.00 0.00 0.00 37 1007.9
20260504000527 10 35 8.0 11.3 0.00 0.00 0.00 36 1007.7
20260504000144 10 269 3.2 17.7 0.00 0.00 0.00 35 1007.6
20260503235527 10 335 3.2 17.7 0.00 0.00 0.00 35 1007.5
20260503235028 10 253 3.2 20.9 0.00 0.00 0.00 35 1007.6
20260503234528 10 237 14.5 16.1 0.00 0.00 0.00 33 1007.4
20260503234142 10 227 8.0 16.1 0.00 0.00 0.00 33 1007.4
20260503233758 10 217 3.2 12.9 0.00 0.00 0.00 33 1007.4
20260503233028 10 254 3.2 12.9 0.00 0.00 0.00 34 1007.4
20260503232528 10 325 12.9 16.1 0.00 0.00 0.00 32 1007.4
20260503232028 10 245 4.8 17.7 0.00 0.00 0.00 32 1007.2
20260503231529 10 282 6.4 17.7 0.00 0.00 0.00 31 1007.2
20260503231027 10 204 4.8 17.7 0.00 0.00 0.00 31 1007.2
20260503230527 10 243 8.0 25.7 0.00 0.00 0.00 31 1007.2
20260503230144 10 207 6.4 25.7 0.00 0.00 0.00 31 1007.2
20260503225528 10 272 6.4 17.7 0.00 0.00 0.00 32 1007.2
20260503225027 10 289 4.8 29.0 0.00 0.00 0.00 31 1007.1
20260503224643 10 207 3.2 29.0 0.00 0.00 0.00 31 1007.1
20260503224026 11 232 9.7 27.4 0.00 0.00 0.00 32 1007.2
20260503223527 10 230 1.6 27.4 0.00 0.00 0.00 33 1007.1
20260503223028 10 279 14.5 35.4 0.00 0.00 0.00 32 1007.2
20260503222644 10 318 12.9 35.4 0.00 0.00 0.00 32 1007.1
20260503222143 10 314 6.4 35.4 0.00 0.00 0.00 34 1007.2
20260503221528 10 269 11.3 40.2 0.00 0.00 0.00 33 1007.2
20260503221142 10 228 12.9 40.2 0.00 0.00 0.00 34 1007.2
20260503220758 10 248 25.7 40.2 0.00 0.00 0.00 34 1007.3
20260503220143 10 246 12.9 33.8 0.00 0.00 0.00 34 1007.1
20260503215528 10 303 29.0 32.2 0.00 0.00 0.00 35 1007.1
20260503215027 10 254 14.5 25.7 0.00 0.00 0.00 36 1007.2
20260503214644 10 334 16.1 43.5 0.00 0.00 0.00 36 1007.2
20260503214258 10 255 17.7 43.5 0.00 0.00 0.00 34 1007.2
20260503213527 10 286 16.1 29.0 0.00 0.00 0.00 38 1007.2
20260503213143 10 249 12.9 32.2 0.00 0.00 0.00 39 1007.2
20260503212528 10 302 22.5 32.2 0.00 0.00 0.00 38 1007.2
20260503212027 10 288 6.4 29.0 0.00 0.00 0.00 38 1007.2
20260503211758 10 287 8.0 30.6 0.00 0.00 0.00 39 1007.2
20260503211143 10 299 20.9 33.8 0.00 0.00 0.00 39 1007.3
20260503210527 10 240 14.5 37.0 0.00 0.00 0.00 38 1007.1
20260503210029 10 285 27.4 32.2 0.00 0.00 0.00 39 1007.3
20260503205528 10 337 17.7 32.2 0.00 0.00 0.00 39 1007.2
20260503205027 9 338 20.9 35.4 0.00 0.00 0.00 38 1007.1
20260503204643 9 314 17.7 35.4 0.00 0.00 0.00 39 1007.2
20260503204027 9 278 30.6 45.1 0.00 0.00 0.00 39 1007.3
20260503203528 9 294 24.1 45.1 0.00 0.00 0.00 38 1007.3
20260503203028 9 242 3.2 24.1 0.00 0.00 0.00 39 1007.3
20260503202527 9 289 8.0 41.8 0.00 0.00 0.00 39 1007.4
20260503202143 9 301 20.9 51.5 0.00 0.00 0.00 40 1007.3
20260503201644 9 226 22.5 51.5 0.00 0.00 0.00 39 1007.4
20260503201028 9 256 16.1 29.0 0.00 0.00 0.00 41 1007.4
20260503200642 9 304 6.4 29.0 0.00 0.00 0.00 42 1007.4
20260503200029 9 305 19.3 27.4 0.00 0.00 0.00 41 1007.4
20260503195527 8 347 4.8 27.4 0.00 0.00 0.00 42 1007.4
20260503195027 8 293 16.1 37.0 0.00 0.00 0.00 43 1007.6
20260503194643 8 287 8.0 37.0 0.00 0.00 0.00 43 1007.6
20260503194143 9 293 20.9 29.0 0.00 0.00 0.00 40 1007.6
20260503193529 9 285 12.9 29.0 0.00 0.00 0.00 41 1007.6
20260503193028 9 241 16.1 29.0 0.00 0.00 0.00 40 1007.6
20260503192527 8 345 8.0 37.0 0.00 0.00 0.00 41 1007.7
20260503192143 8 322 19.3 37.0 0.00 0.00 0.00 42 1007.7
20260503191529 8 354 17.7 51.5 0.00 0.00 0.00 41 1007.9
20260503191027 8 298 25.7 51.5 0.00 0.00 0.00 40 1007.9
20260503190643 8 343 16.1 38.6 0.00 0.00 0.00 41 1007.8
20260503190143 8 4 6.4 33.8 0.00 0.00 0.00 41 1007.8
20260503185528 8 326 27.4 33.8 0.00 0.00 0.00 41 1007.8
20260503185027 8 318 30.6 40.2 0.00 0.00 0.00 41 1007.9
20260503184643 8 320 22.5 40.2 0.00 0.00 0.00 41 1007.8
20260503184143 8 272 22.5 38.6 0.00 0.00 0.00 41 1007.8
20260503183528 8 339 20.9 32.2 0.00 0.00 0.00 43 1007.8
20260503183027 8 272 14.5 41.8 0.00 0.00 0.00 42 1007.8
20260503182642 8 264 14.5 41.8 0.00 0.00 0.00 42 1007.7
20260503182027 8 297 25.7 35.4 0.00 0.00 0.00 40 1007.7
20260503181529 8 348 9.7 27.4 0.00 0.00 0.00 41 1007.8
20260503181142 8 328 9.7 24.1 0.00 0.00 0.00 40 1007.8
20260503180528 8 270 6.4 38.6 0.00 0.00 0.00 42 1007.7
20260503180028 8 299 22.5 37.0 0.00 0.00 0.00 40 1007.7
20260503175528 8 280 12.9 38.6 0.00 0.00 0.00 41 1007.6
20260503175142 8 256 12.9 38.6 0.00 0.00 0.00 41 1007.7
20260503174643 8 339 6.4 25.7 0.00 0.00 0.00 41 1007.7
20260503174028 8 289 14.5 35.4 0.00 0.00 0.00 40 1007.7
20260503173527 8 328 32.2 35.4 0.00 0.00 0.00 40 1007.7
20260503173028 8 264 9.7 35.4 0.00 0.00 0.00 41 1007.6
20260503172527 8 216 6.4 35.4 0.00 0.00 0.00 40 1007.7
20260503172027 8 263 17.7 41.8 0.00 0.00 0.00 41 1007.7
20260503171644 8 262 35.4 46.7 0.00 0.00 0.00 41 1007.8
20260503171142 8 256 30.6 37.0 0.00 0.00 0.00 41 1007.7
20260503170528 8 258 17.7 30.6 0.00 0.00 0.00 44 1007.7
20260503150642 6 318 9.7 25.7 0.00 0.00 0.00 56 1008.2